Probability
26 16 13 29 23 3 0 0 0 0 0 0 0 0 0 0 0 3 10 16 23 48 55 81 84 77 81 81 84 81 84 84 84 84 84 77 84 77 77 68 65 61 58 61 55 52 58 58 58
6 13 13 29 10 0 0 0 0 0 0 0 0 0 0 6 6 10 13 13 32 32 42 68 84 84 90 87 84 87 87 84 87 90 84 87 77 74 74 68 71 68 65 55 58 55 55 52 48
3 10 29 16 3 0 0 0 0 0 0 0 0 0 3 10 10 10 6 19 29 35 55 74 84 90 94 87 84 87 87 90 87 90 90 87 84 77 71 71 74 71 61 48 42 42 39 42 42
16 23 13 0 0 0 0 0 0 0 0 0 0 3 6 6 13 16 19 23 29 32 65 84 87 90 87 81 77 74 77 81 81 84 87 81 84 81 74 71 74 77 61 52 52 45 42 52 55
16 13 6 0 0 0 0 0 0 0 0 0 0 0 10 10 16 16 19 23 29 42 55 84 87 90 90 84 81 84 81 77 77 77 81 81 77 71 68 74 71 71 65 61 52 48 45 55 58
16 6 0 0 0 0 0 0 0 0 0 0 0 0 10 10 16 23 23 23 39 52 61 71 87 90 87 87 90 90 87 81 74 77 77 74 77 71 65 58 61 61 68 58 42 42 42 42 55
0 0 0 0 0 0 0 0 0 0 0 3 0 0 10 10 16 19 26 23 42 45 55 61 74 81 81 84 87 84 84 84 84 77 77 71 68 65 65 58 58 65 65 52 45 35 35 48 61
0 0 0 0 0 0 0 0 0 0 3 0 0 0 6 16 16 19 29 29 29 32 39 42 58 65 65 77 74 84 81 81 77 74 74 74 65 68 58 55 55 55 58 58 39 39 42 61 58
0 0 0 0 0 0 0 0 0 0 0 3 3 0 6 13 16 16 16 26 16 23 23 26 32 39 42 42 71 77 81 77 71 61 74 61 29 26 45 52 52 58 52 45 45 48 52 58 55
0 0 0 0 0 0 0 0 0 0 0 0 0 3 6 16 10 6 6 13 16 16 16 16 19 16 19 35 42 39 42 32 23 23 23 13 10 6 32 52 65 61 58 52 45 52 48 32 13
0 0 0 0 0 0 0 0 0 0 0 0 3 3 6 10 6 0 3 6 6 10 23 16 13 13 10 6 19 16 6 6 3 10 10 10 10 6 6 3 26 29 32 26 26 35 16 3 0
0 0 0 0 0 0 0 0 0 0 0 0 0 6 3 3 3 0 0 0 3 10 10 10 13 13 10 10 13 6 16 6 10 10 6 3 3 6 3 0 3 3 3 0 0 0 0 0 6
0 0 0 0 0 0 0 0 0 0 0 0 0 0 0 3 3 3 0 0 3 6 13 13 19 23 13 16 16 19 16 19 16 16 16 13 13 6 3 3 3 3 0 0 0 0 3 3 3
0 0 0 0 0 0 0 0 0 0 0 0 0 0 0 0 0 0 3 3 6 16 29 26 23 19 19 16 16 13 19 19 26 13 16 10 10 13 16 6 6 10 10 6 3 3 3 3 3
0 0 0 0 0 0 0 0 0 0 0 0 0 0 0 0 0 0 10 10 10 23 26 29 19 16 23 19 19 26 23 19 19 13 19 16 19 16 16 10 10 10 10 6 6 6 6 3 3
0 0 0 0 0 0 0 0 0 0 0 0 0 0 0 0 3 0 10 10 10 16 26 29 39 23 29 23 19 19 19 23 19 16 19 19 16 16 23 16 10 13 10 13 10 13 13 6 6
0 0 0 0 0 0 0 0 0 0 0 0 0 0 0 0 0 0 6 10 10 16 32 26 29 26 32 19 23 23 26 26 23 23 23 23 16 16 16 16 16 16 16 13 16 10 13 13 13
0 0 0 0 0 0 0 0 0 0 0 0 0 0 0 0 0 3 10 16 16 16 19 29 29 26 26 16 19 26 23 23 19 19 23 23 26 29 16 19 19 19 19 16 10 6 6 6 6
0 0 0 0 0 0 0 0 0 0 0 0 0 0 0 3 3 0 13 19 19 16 16 23 26 32 35 35 29 32 23 16 23 23 19 26 23 23 23 23 13 16 13 13 10 10 6 6 6
0 0 0 0 0 0 0 0 0 0 0 0 0 0 3 3 0 3 13 26 19 16 23 19 26 32 35 32 29 29 26 26 23 23 29 19 23 23 26 26 6 16 10 10 10 10 6 6 6
0 0 0 0 0 0 0 0 0 0 0 0 0 0 0 0 0 3 16 26 19 23 32 42 29 35 39 39 35 39 26 29 32 19 19 19 19 23 19 23 19 16 19 13 6 6 6 6 6
0 0 0 0 0 0 0 0 0 0 3 3 0 0 0 0 0 10 16 19 16 26 32 32 39 39 35 48 45 42 29 29 23 26 19 16 26 29 19 16 16 16 13 13 6 10 10 3 0
0 0 0 0 0 0 0 0 0 0 0 0 3 0 0 0 10 13 16 19 29 32 39 35 35 48 45 45 45 39 26 19 16 23 26 19 26 26 23 16 13 13 19 19 16 6 6 3 0
0 0 0 0 0 0 0 0 0 0 3 0 3 0 3 13 19 19 23 23 32 45 52 45 42 48 45 45 42 39 35 35 29 29 26 26 23 23 23 26 19 16 16 19 19 13 10 13 10
0 0 0 0 0 0 0 0 0 0 3 3 3 3 6 16 23 19 19 19 26 35 48 48 52 58 58 55 42 35 39 39 39 35 35 32 26 23 19 32 23 19 16 13 13 16 10 13 13
0 0 0 0 0 0 0 0 3 3 3 3 0 6 10 13 23 26 26 16 26 32 48 45 58 61 61 58 48 42 42 45 35 35 35 29 29 19 19 23 23 23 19 13 13 16 13 13 10
0 0 0 0 0 0 0 3 3 6 3 3 6 10 10 23 23 19 16 26 26 29 45 45 61 61 58 55 52 42 45 42 42 35 29 32 32 29 19 23 16 19 10 10 10 16 13 6 6
0 0 0 0 0 0 0 0 3 3 6 6 3 13 13 19 19 16 19 23 23 29 35 42 58 58 52 48 52 48 42 42 42 42 39 29 26 23 26 23 19 16 16 13 10 16 13 10 6
0 0 0 0 0 0 0 0 0 3 6 6 3 10 13 19 26 19 16 19 26 32 35 48 61 61 55 52 48 42 42 45 39 32 39 32 23 23 19 19 16 16 16 13 10 16 13 6 10
0 0 0 0 0 0 0 0 0 3 6 6 3 6 13 13 16 19 16 19 29 35 35 45 55 58 55 52 55 48 39 45 48 42 35 35 26 26 23 16 16 19 19 16 10 13 13 10 13
Height
5898 5897 5896 5896 5894 5892 5890 5890 5888 5887 5886 5884 5883 5883 5881 5880 5880 5880 5877 5875 5875 5875 5874 5874 5874 5875 5875 5875 5875 5876 5876 5876 5876 5876 5876 5876 5877 5877 5877 5877 5877 5877 5877 5878 5878 5878 5878 5879 5879
5901 5899 5900 5898 5895 5894 5892 5892 5891 5890 5888 5886 5886 5885 5883 5882 5880 5879 5878 5877 5877 5876 5876 5876 5876 5876 5876 5876 5877 5877 5877 5877 5877 5877 5878 5878 5878 5879 5879 5879 5879 5879 5879 5879 5880 5880 5880 5880 5881
5903 5902 5903 5899 5897 5896 5895 5894 5893 5892 5890 5889 5888 5887 5886 5884 5882 5880 5879 5879 5878 5878 5878 5878 5878 5878 5878 5878 5878 5878 5879 5878 5878 5879 5879 5879 5879 5880 5880 5880 5880 5880 5881 5881 5881 5881 5881 5881 5882
5906 5906 5904 5902 5899 5898 5898 5897 5895 5894 5893 5891 5890 5889 5887 5885 5883 5882 5881 5881 5880 5880 5880 5880 5880 5880 5880 5880 5880 5880 5880 5880 5880 5880 5880 5881 5881 5881 5881 5881 5881 5881 5882 5882 5883 5883 5883 5883 5883
5909 5908 5906 5903 5901 5900 5900 5899 5898 5897 5895 5893 5893 5892 5890 5887 5885 5884 5883 5883 5882 5882 5882 5882 5882 5882 5881 5881 5881 5881 5881 5881 5881 5881 5882 5882 5882 5883 5883 5883 5883 5883 5883 5883 5884 5884 5884 5884 5885
5912 5910 5908 5906 5904 5903 5903 5902 5901 5900 5898 5896 5895 5894 5892 5890 5888 5886 5885 5885 5884 5884 5884 5883 5883 5883 5883 5883 5883 5883 5883 5883 5883 5883 5883 5883 5884 5884 5884 5884 5884 5884 5884 5885 5885 5885 5885 5886 5886
5914 5912 5910 5909 5908 5907 5906 5905 5904 5902 5901 5899 5897 5896 5894 5892 5890 5889 5888 5887 5886 5886 5885 5885 5885 5885 5885 5885 5885 5885 5885 5885 5884 5884 5884 5885 5885 5885 5885 5886 5886 5886 5886 5886 5886 5887 5887 5887 5887
5915 5915 5913 5912 5911 5910 5909 5908 5907 5905 5904 5902 5900 5898 5897 5895 5893 5891 5890 5890 5889 5888 5888 5887 5887 5887 5887 5887 5886 5886 5886 5886 5886 5886 5886 5886 5887 5887 5887 5887 5887 5887 5888 5888 5888 5888 5888 5888 5888
5918 5918 5916 5915 5914 5914 5912 5911 5910 5908 5906 5904 5902 5901 5899 5898 5896 5894 5893 5892 5891 5891 5890 5890 5889 5889 5889 5889 5889 5888 5888 5888 5888 5888 5888 5888 5888 5888 5889 5889 5889 5889 5889 5889 5889 5889 5889 5889 5889
5921 5920 5920 5919 5918 5917 5915 5914 5912 5910 5909 5907 5905 5904 5902 5900 5899 5898 5896 5895 5894 5893 5892 5892 5892 5892 5891 5891 5891 5891 5891 5890 5890 5890 5890 5890 5890 5890 5890 5890 5890 5890 5890 5890 5890 5890 5890 5890 5890
5923 5923 5922 5921 5920 5920 5919 5917 5915 5913 5912 5910 5908 5907 5905 5903 5902 5900 5899 5898 5897 5896 5895 5895 5894 5894 5894 5893 5893 5893 5893 5893 5892 5892 5892 5891 5891 5892 5892 5892 5891 5892 5891 5891 5891 5891 5891 5891 5891
5925 5925 5924 5923 5922 5923 5922 5920 5918 5916 5915 5913 5911 5910 5908 5906 5904 5903 5902 5900 5899 5899 5898 5897 5897 5897 5896 5896 5895 5895 5895 5895 5894 5894 5894 5893 5893 5893 5893 5893 5893 5893 5892 5892 5892 5892 5892 5891 5891
5927 5926 5925 5925 5925 5924 5924 5923 5921 5920 5918 5916 5915 5913 5911 5909 5907 5906 5904 5903 5902 5901 5901 5900 5900 5899 5899 5898 5898 5897 5897 5897 5897 5896 5896 5895 5895 5895 5895 5895 5894 5894 5893 5892 5892 5892 5892 5891 5891
5928 5928 5927 5928 5927 5926 5926 5926 5925 5923 5921 5920 5918 5916 5914 5912 5910 5909 5907 5906 5905 5904 5904 5903 5902 5901 5901 5900 5900 5899 5899 5899 5898 5898 5897 5897 5896 5896 5896 5895 5895 5895 5894 5893 5893 5892 5892 5891 5891
5930 5930 5930 5930 5930 5928 5929 5928 5927 5925 5924 5923 5921 5919 5917 5915 5914 5912 5910 5909 5908 5907 5906 5905 5904 5903 5903 5902 5902 5901 5901 5900 5900 5899 5899 5898 5897 5897 5897 5896 5895 5895 5894 5894 5893 5893 5892 5891 5891
5932 5932 5932 5931 5932 5931 5933 5931 5929 5928 5926 5925 5924 5922 5920 5919 5917 5915 5913 5912 5911 5910 5909 5908 5907 5906 5905 5904 5903 5902 5902 5901 5901 5900 5900 5899 5899 5898 5897 5897 5896 5895 5895 5894 5893 5893 5892 5892 5891
5933 5933 5933 5933 5933 5933 5934 5933 5932 5930 5929 5927 5926 5925 5923 5922 5920 5918 5916 5915 5914 5913 5911 5910 5909 5908 5907 5906 5905 5904 5903 5902 5902 5901 5901 5900 5899 5898 5897 5897 5896 5895 5895 5894 5894 5893 5892 5891 5891
5933 5934 5934 5934 5934 5934 5935 5934 5933 5932 5931 5930 5928 5927 5926 5924 5922 5921 5919 5917 5916 5915 5914 5913 5911 5910 5909 5908 5907 5906 5905 5904 5903 5902 5901 5900 5899 5899 5898 5897 5896 5895 5895 5894 5893 5892 5891 5891 5890
5933 5934 5933 5934 5935 5935 5935 5935 5935 5933 5933 5932 5931 5929 5928 5926 5925 5923 5922 5920 5919 5917 5916 5915 5913 5912 5911 5909 5908 5907 5906 5905 5904 5902 5901 5900 5899 5898 5897 5897 5896 5895 5894 5894 5893 5892 5891 5890 5890
5932 5933 5933 5934 5935 5936 5936 5936 5936 5935 5934 5933 5932 5931 5930 5928 5927 5925 5924 5923 5921 5919 5918 5916 5915 5914 5912 5911 5910 5908 5907 5905 5904 5902 5901 5900 5899 5898 5897 5896 5895 5895 5894 5893 5892 5891 5890 5889 5889
5931 5932 5933 5934 5935 5935 5936 5936 5936 5936 5935 5934 5933 5932 5931 5929 5929 5927 5925 5924 5923 5922 5920 5919 5917 5915 5914 5912 5911 5909 5907 5906 5904 5903 5901 5900 5899 5898 5897 5896 5895 5894 5893 5892 5891 5890 5889 5888 5888
5929 5931 5932 5933 5934 5935 5935 5936 5935 5935 5935 5934 5933 5933 5932 5930 5930 5929 5927 5926 5924 5923 5922 5920 5919 5917 5915 5913 5911 5910 5908 5906 5905 5903 5902 5901 5900 5898 5897 5896 5895 5894 5893 5892 5890 5889 5888 5887 5886
5928 5930 5930 5931 5932 5933 5933 5934 5935 5934 5934 5934 5933 5932 5932 5931 5930 5929 5928 5927 5926 5924 5923 5921 5920 5918 5916 5914 5912 5910 5909 5907 5905 5904 5903 5901 5900 5899 5897 5896 5895 5894 5893 5891 5890 5888 5887 5886 5885
5926 5928 5929 5929 5930 5931 5932 5933 5934 5934 5934 5934 5933 5932 5932 5931 5930 5930 5929 5928 5926 5925 5924 5922 5920 5919 5917 5914 5912 5910 5909 5907 5906 5904 5902 5901 5900 5899 5897 5896 5895 5893 5892 5891 5889 5887 5885 5884 5883
5923 5926 5927 5927 5927 5929 5931 5931 5932 5932 5932 5933 5933 5932 5931 5931 5930 5930 5929 5927 5926 5925 5924 5922 5920 5919 5917 5915 5913 5911 5909 5908 5906 5904 5903 5901 5900 5898 5897 5896 5894 5893 5891 5889 5888 5886 5884 5882 5881
5919 5922 5924 5925 5926 5927 5928 5929 5931 5931 5931 5930 5931 5931 5930 5930 5930 5929 5928 5927 5926 5925 5924 5922 5920 5919 5917 5915 5913 5911 5910 5908 5906 5904 5903 5901 5900 5898 5896 5895 5893 5891 5890 5888 5886 5884 5882 5881 5879
5916 5918 5920 5921 5922 5924 5925 5926 5928 5928 5929 5929 5929 5929 5929 5929 5929 5929 5928 5926 5925 5924 5923 5922 5920 5918 5917 5915 5913 5911 5909 5908 5906 5904 5903 5901 5899 5897 5895 5893 5892 5890 5888 5886 5884 5882 5880 5878 5877
5912 5914 5916 5917 5918 5919 5921 5923 5925 5926 5926 5927 5927 5927 5928 5928 5928 5927 5927 5925 5924 5924 5922 5921 5919 5918 5916 5914 5912 5911 5909 5907 5905 5904 5902 5900 5898 5896 5894 5892 5890 5888 5886 5884 5881 5879 5877 5876 5874
5907 5909 5911 5913 5914 5916 5917 5921 5922 5923 5923 5923 5924 5925 5925 5926 5926 5925 5924 5924 5923 5922 5921 5920 5918 5916 5915 5913 5912 5910 5908 5906 5904 5902 5900 5899 5897 5895 5893 5891 5888 5886 5884 5881 5879 5877 5874 5873 5871
5902 5904 5906 5908 5910 5912 5913 5918 5917 5918 5919 5920 5921 5922 5922 5923 5923 5922 5922 5922 5921 5920 5919 5918 5916 5915 5913 5912 5910 5908 5907 5905 5903 5901 5899 5897 5895 5893 5891 5888 5886 5884 5881 5879 5877 5874 5872 5870 5868
Wind_Speed
19 18 18 19 21 20 20 21 19 17 15 15 15 14 13 12 12 12 12 12 12 12 12 11 11 10 10 10 9 9 8 8 8 8 7 7 7 7 8 8 8 8 9 9 10 10 10 10 10
19 18 18 20 22 21 21 21 19 17 17 17 15 14 13 12 12 12 12 12 12 12 12 11 11 11 10 9 9 9 8 8 8 8 7 7 7 8 8 8 8 9 9 9 9 9 9 9 9
19 19 19 22 22 21 21 21 20 18 18 18 16 15 14 13 13 13 13 13 13 12 11 11 11 11 10 10 9 9 9 9 8 8 8 7 8 8 8 8 8 8 8 8 9 9 8 9 9
18 19 21 22 22 22 21 21 20 18 18 18 17 15 15 15 14 14 13 13 13 12 12 12 11 11 11 10 9 9 9 9 9 8 8 9 8 8 8 8 8 8 8 8 8 8 8 8 9
18 19 21 21 23 23 22 21 20 19 17 18 17 15 15 16 15 14 14 14 13 13 13 13 12 12 11 11 10 10 10 10 10 9 9 10 9 8 8 8 8 8 8 8 8 8 8 8 9
18 19 19 20 22 22 21 21 20 18 17 17 17 17 17 17 17 16 15 15 14 14 13 13 13 13 12 11 11 11 11 11 11 10 10 10 9 9 8 8 8 8 8 8 8 8 8 9 9
18 18 19 20 21 21 21 20 19 17 17 17 17 17 18 18 17 17 16 15 14 14 14 14 13 13 13 12 12 12 12 11 11 11 11 10 9 9 9 8 8 8 7 7 7 8 8 8 8
18 18 18 19 20 20 20 20 18 18 17 17 17 17 18 18 18 17 17 16 14 14 15 14 14 14 13 13 12 12 12 12 11 11 10 10 9 9 8 8 8 8 7 7 7 7 7 7 7
17 17 17 18 19 19 19 18 18 18 18 17 18 18 18 18 18 17 17 17 16 15 15 15 14 14 13 13 13 12 12 11 11 10 10 10 9 9 8 8 8 7 6 6 6 6 6 6 5
15 16 17 17 19 19 18 18 19 19 19 19 19 18 18 18 18 18 17 17 16 15 14 15 15 14 13 13 13 13 12 11 11 11 10 9 9 8 8 7 7 6 6 6 6 6 5 4 4
13 14 16 17 17 18 18 19 20 20 19 20 19 18 18 18 18 18 17 17 16 16 15 15 14 14 13 13 13 13 12 12 11 10 10 9 9 8 7 7 6 6 6 6 5 5 4 4 4
11 14 15 16 16 18 18 20 20 19 19 19 19 18 18 18 19 18 18 18 17 16 15 15 14 14 13 13 13 12 12 11 11 11 10 9 8 7 7 6 6 6 6 6 5 4 4 3 3
10 13 14 15 16 18 19 20 20 19 19 19 19 18 18 19 19 19 18 18 17 16 16 15 14 14 13 12 11 11 11 11 11 10 9 9 8 7 6 5 5 5 4 4 4 3 3 2 2
9 9 11 13 15 16 18 19 19 18 18 18 19 19 19 19 19 19 18 18 17 17 15 15 14 13 12 12 11 10 9 10 9 9 8 7 7 6 6 5 5 4 3 4 4 3 3 2 1
8 8 11 12 13 15 16 17 18 18 18 18 19 19 19 19 19 18 17 18 17 16 15 14 14 13 12 11 11 9 8 8 8 7 7 7 6 6 6 5 5 4 4 4 3 3 3 2 2
8 8 10 10 11 14 14 15 17 17 17 17 18 18 18 18 18 17 17 17 17 16 15 15 14 14 13 11 11 10 9 8 7 6 6 6 5 5 5 4 4 4 4 3 3 2 2 2 3
7 7 8 9 10 11 12 14 15 16 17 16 17 17 17 17 17 17 16 16 16 15 15 14 14 13 13 12 11 10 9 8 8 7 6 5 5 4 4 4 4 4 3 3 3 3 2 3 3
8 5 6 7 8 9 9 11 13 14 15 15 16 16 16 16 16 16 16 15 16 15 14 14 14 13 13 12 10 10 9 8 7 7 7 6 4 4 4 3 3 3 3 3 3 3 3 3 4
9 7 5 4 5 6 7 8 10 12 13 14 14 14 14 15 15 15 16 15 14 14 14 13 13 13 12 12 11 10 8 7 7 6 6 6 5 5 4 3 3 3 3 3 4 4 4 4 5
11 8 5 3 1 3 3 5 7 10 11 12 12 12 12 13 14 15 15 14 14 14 14 13 13 13 12 11 10 9 8 8 7 6 6 6 6 6 5 5 4 4 4 4 4 4 4 5 6
11 9 6 3 2 2 2 3 5 7 9 10 10 11 10 11 12 12 13 13 13 12 12 12 12 12 12 11 10 10 9 8 7 7 7 6 6 6 6 6 5 5 5 5 5 5 5 6 6
12 12 9 6 4 4 3 3 4 5 7 8 9 9 9 11 11 11 11 11 12 11 11 11 11 11 11 11 11 10 10 9 8 8 8 7 7 7 7 7 6 6 5 6 5 5 5 6 7
12 12 11 9 8 7 6 5 4 4 5 6 7 9 8 9 10 10 9 10 10 10 10 11 11 11 11 11 11 11 9 9 9 7 7 7 7 7 7 7 7 7 7 7 7 6 7 7 8
14 14 13 13 11 10 7 7 5 4 4 4 5 6 7 8 8 9 8 8 9 10 10 10 11 11 11 11 11 10 10 9 9 8 8 7 7 8 8 8 8 7 8 8 8 9 8 8 8
18 17 16 16 15 12 10 10 7 5 4 4 4 4 4 5 7 8 8 8 8 9 9 10 10 10 11 10 10 9 9 9 9 8 8 8 8 9 8 8 8 8 8 9 9 9 9 9 9
19 19 18 17 16 14 13 11 9 8 6 5 5 6 5 5 6 6 6 6 8 8 8 9 9 10 10 10 10 9 9 9 9 9 8 8 8 9 9 9 9 9 9 10 10 10 10 10 10
20 20 19 18 17 16 15 14 12 10 8 7 8 8 8 6 6 6 6 7 8 8 7 8 8 9 9 9 9 9 9 9 9 8 8 8 9 9 9 10 10 10 11 11 11 11 11 11 11
22 21 20 20 19 19 18 16 14 10 9 9 8 8 8 7 7 7 7 7 7 8 8 8 8 8 9 9 9 8 8 8 8 8 8 8 9 9 9 10 10 11 12 12 12 12 12 11 11
24 23 22 22 22 21 20 17 14 12 12 11 9 9 10 10 9 8 7 7 7 8 9 8 8 8 9 9 8 8 8 8 8 8 8 9 9 10 10 11 11 12 12 12 13 13 12 12 12
26 25 24 23 22 22 22 19 18 16 14 13 12 12 12 12 11 11 10 8 8 9 9 8 8 8 8 8 8 8 8 9 9 9 9 10 10 11 11 12 12 12 12 13 13 13 13 13 13
Wind_Direction
69 63 57 56 51 48 52 53 54 55 54 54 50 50 54 61 65 71 73 75 77 83 87 88 92 96 97 101 103 101 103 107 112 116 118 118 114 112 110 115 120 119 118 118 116 107 103 110 117
67 61 57 53 50 45 50 51 55 57 58 56 51 51 56 62 66 72 76 76 81 87 89 88 91 95 100 102 102 99 99 102 111 116 116 118 116 115 114 113 118 116 116 115 111 109 107 112 118
65 62 56 51 49 44 46 48 53 55 56 57 54 53 55 60 64 71 76 76 81 87 89 89 90 93 97 100 99 98 99 103 108 111 113 113 115 116 115 114 116 115 114 110 110 109 113 115 116
65 63 55 50 46 44 45 49 53 53 53 56 56 55 57 60 67 70 73 76 80 86 89 89 90 92 94 96 99 100 99 103 106 108 111 117 120 120 117 118 118 114 112 113 114 112 110 116 119
64 61 54 49 46 45 45 50 52 52 51 54 56 55 58 62 66 69 71 76 79 85 88 87 88 88 89 92 95 96 98 102 102 105 110 116 119 115 118 117 117 118 115 113 115 114 114 117 119
62 55 51 48 47 45 45 48 48 49 51 53 56 56 59 64 67 69 72 75 79 83 83 85 85 86 85 87 91 92 95 98 100 106 111 111 110 112 113 113 111 113 115 117 117 120 116 115 113
63 57 55 49 46 44 46 48 48 49 50 55 59 59 60 63 64 66 70 75 77 80 81 84 87 87 86 88 92 93 93 95 98 102 106 108 109 111 111 111 109 112 115 119 119 118 115 117 115
65 58 56 51 47 46 46 48 49 51 51 55 60 60 60 63 64 64 68 74 76 79 80 82 85 87 86 88 91 93 94 95 95 96 98 103 106 106 104 104 103 107 110 112 114 114 117 119 119
62 54 56 54 49 48 48 49 51 53 52 56 59 59 60 63 65 68 69 71 73 78 81 83 85 84 84 86 90 91 92 94 95 96 99 103 103 101 100 100 97 98 100 106 108 110 112 119 120
59 52 55 56 52 49 50 51 51 51 51 54 57 57 58 62 66 69 71 73 71 74 80 83 83 82 82 83 86 88 87 92 92 95 98 101 100 97 95 93 91 93 94 99 99 99 100 109 113
61 59 58 58 54 51 51 53 51 51 51 53 56 56 57 60 64 68 69 71 71 72 78 82 83 82 83 82 84 85 84 86 85 87 90 93 94 91 93 93 93 96 91 96 99 103 102 106 108
70 74 66 62 58 54 53 52 51 51 52 53 54 56 57 59 62 66 67 69 70 73 78 78 79 79 81 80 80 82 83 86 86 85 87 87 88 89 91 96 93 94 91 97 97 94 96 100 107
81 80 71 60 58 55 53 53 51 52 53 52 52 55 56 57 60 62 63 65 68 72 75 75 76 77 77 78 80 79 80 84 87 86 82 79 78 81 81 91 90 87 81 84 80 85 89 85 90
84 89 77 64 58 55 51 54 53 51 52 51 51 53 54 55 57 60 63 65 67 70 71 71 72 73 73 74 78 81 82 82 83 80 77 74 69 69 70 69 72 69 62 63 69 77 74 70 52
100 95 86 74 64 57 53 51 50 51 51 49 48 50 52 53 54 57 62 64 64 66 66 67 68 68 69 71 72 75 78 78 76 75 70 67 68 70 68 66 60 55 54 45 47 52 50 54 25
114 101 89 80 74 57 55 49 50 50 49 47 46 47 50 51 51 55 61 62 62 63 63 63 63 63 64 66 68 66 70 70 66 66 64 60 64 65 63 58 51 46 41 29 19 17 14 2 353
125 98 83 77 72 57 49 45 46 47 46 45 45 47 48 49 51 55 61 62 62 60 59 60 59 59 59 60 62 60 64 64 59 56 53 49 50 55 51 44 38 37 33 21 360 351 352 346 336
144 124 91 71 66 55 41 42 44 45 43 43 43 43 44 45 48 53 59 61 58 57 57 57 56 55 55 56 57 57 58 53 49 46 41 38 40 35 32 26 13 10 6 357 344 339 337 322 317
164 150 126 106 77 56 45 45 47 44 41 41 41 39 40 41 44 48 52 54 53 53 52 52 54 52 51 51 50 48 47 41 37 36 36 33 34 25 22 19 3 352 349 343 332 334 334 326 326
174 163 155 138 77 43 33 42 41 43 40 37 37 36 32 35 40 45 47 49 49 49 50 50 48 46 46 44 42 39 36 31 30 33 30 28 27 21 20 21 11 357 344 338 328 319 323 327 327
183 190 183 173 173 266 335 6 29 31 25 26 31 28 27 29 36 42 44 44 45 45 44 44 41 39 38 37 34 34 32 33 34 32 28 26 25 26 29 27 14 356 352 341 327 317 314 320 326
190 199 195 197 220 265 286 323 352 5 8 10 22 19 17 24 31 35 39 40 40 39 39 39 37 34 32 30 29 28 29 28 24 20 19 23 22 15 15 11 9 2 352 346 335 324 317 315 320
199 202 204 213 229 247 263 284 298 320 350 359 8 14 16 19 23 27 32 36 37 35 34 33 32 31 29 27 27 26 26 25 22 20 20 20 18 14 7 4 1 358 350 343 342 328 314 311 309
210 206 210 221 230 233 239 259 267 289 323 342 354 8 16 18 17 19 22 28 30 28 27 26 26 25 24 23 22 23 24 23 21 18 22 20 17 12 8 3 355 348 343 344 341 339 328 318 314
212 211 215 223 226 228 232 248 250 260 283 313 315 330 354 12 10 11 11 16 20 18 18 18 19 18 18 19 19 20 20 18 17 16 17 13 9 8 5 358 350 346 344 344 341 337 334 326 321
215 216 219 227 230 231 232 241 249 258 269 280 292 303 314 344 353 360 4 3 6 7 10 10 10 10 11 13 14 15 16 14 10 13 11 9 8 4 0 355 348 342 343 344 341 336 331 328 326
216 219 222 229 229 231 232 237 242 249 256 269 289 305 312 327 338 346 349 352 358 357 0 1 4 5 6 6 6 7 7 7 5 8 10 8 5 1 358 356 353 348 345 342 338 335 332 326 325
221 223 225 228 231 235 235 234 233 247 257 269 281 292 304 316 323 330 336 341 345 346 351 354 355 358 0 0 359 357 357 359 360 358 358 357 355 352 350 351 348 345 343 339 337 334 330 325 321
219 223 226 231 232 236 238 236 229 234 248 256 269 285 296 308 308 309 318 323 325 330 334 336 341 346 351 352 353 351 351 352 353 352 350 347 345 344 342 343 344 341 340 341 339 337 332 327 323
221 225 228 232 234 238 238 240 234 237 245 258 266 277 289 293 296 301 304 307 307 311 319 321 327 334 342 346 350 349 346 347 348 347 345 344 342 340 338 339 340 339 338 337 336 337 336 332 327